Time,TemperatureF,DewpointF,PressureIn,WindDirection,WindDirectionDegrees,WindSpeedMPH,WindSpeedGustMPH,Humidity,HourlyPrecipIn,Conditions,Clouds,dailyrainin,SoftwareType,DateUTC
2013-05-18 00:01:00,45.7,43.0,-100.00,NNW,333,0.0,0.0,90,0.00,,,0.00,meteohub,2013-05-18 04:01:00,
2013-05-18 00:02:00,45.7,42.6,-100.00,NNW,333,0.0,0.0,89,0.00,,,0.00,meteohub,2013-05-18 04:02:00,
2013-05-18 00:07:00,45.3,42.6,-100.00,NNW,333,0.0,0.0,90,0.00,,,0.00,meteohub,2013-05-18 04:07:00,
2013-05-18 00:12:00,44.8,41.7,-100.00,West,280,0.0,0.0,89,0.00,,,0.00,meteohub,2013-05-18 04:12:00,
2013-05-18 00:17:00,44.4,40.8,-100.00,West,280,0.0,1.0,87,0.00,,,0.00,meteohub,2013-05-18 04:17:00,
2013-05-18 00:22:00,44.1,40.5,-100.00,West,279,0.0,1.0,87,0.00,,,0.00,meteohub,2013-05-18 04:22:00,
2013-05-18 00:27:00,43.9,40.8,-100.00,West,280,0.0,1.0,89,0.00,,,0.00,meteohub,2013-05-18 04:27:00,
2013-05-18 00:32:00,43.9,41.2,-100.00,West,279,0.0,0.0,90,0.00,,,0.00,meteohub,2013-05-18 04:32:00,
2013-05-18 00:37:00,43.7,41.0,-100.00,West,280,0.0,0.0,90,0.00,,,0.00,meteohub,2013-05-18 04:37:00,
2013-05-18 00:42:00,43.3,40.6,-100.00,West,280,0.0,0.0,90,0.00,,,0.00,meteohub,2013-05-18 04:42:00,
2013-05-18 00:47:00,44.2,42.6,-100.00,West,281,0.0,0.0,94,0.00,,,0.00,meteohub,2013-05-18 04:47:00,
2013-05-18 00:52:00,44.8,43.2,-100.00,West,281,0.0,1.0,94,0.00,,,0.00,meteohub,2013-05-18 04:52:00,
2013-05-18 00:57:00,44.8,42.8,-100.00,West,281,0.0,1.0,93,0.00,,,0.00,meteohub,2013-05-18 04:57:00,
2013-05-18 01:02:00,45.0,43.3,-100.00,West,279,0.0,0.0,94,0.00,,,0.00,meteohub,2013-05-18 05:02:00,
2013-05-18 01:07:00,44.4,42.3,-100.00,SW,220,0.0,0.0,92,0.00,,,0.00,meteohub,2013-05-18 05:07:00,
2013-05-18 01:12:00,43.7,41.2,-100.00,SW,221,0.0,2.0,91,0.00,,,0.00,meteohub,2013-05-18 05:12:00,
2013-05-18 01:17:00,43.2,40.6,-100.00,SW,220,0.0,2.0,91,0.00,,,0.00,meteohub,2013-05-18 05:17:00,
2013-05-18 01:22:00,43.7,42.1,-100.00,SW,220,0.0,2.0,94,0.00,,,0.00,meteohub,2013-05-18 05:22:00,
2013-05-18 01:27:00,44.1,42.4,-100.00,SW,221,0.0,1.0,94,0.00,,,0.00,meteohub,2013-05-18 05:27:00,
2013-05-18 01:32:00,43.3,41.5,-100.00,SW,220,0.0,1.0,93,0.00,,,0.00,meteohub,2013-05-18 05:32:00,
2013-05-18 01:37:00,43.7,42.1,-100.00,SW,220,0.0,1.0,94,0.00,,,0.00,meteohub,2013-05-18 05:37:00,
2013-05-18 01:42:00,44.1,42.4,-100.00,SW,220,0.0,1.0,94,0.00,,,0.00,meteohub,2013-05-18 05:42:00,
2013-05-18 01:47:00,43.5,41.4,-100.00,SW,221,0.0,1.0,92,0.00,,,0.00,meteohub,2013-05-18 05:47:00,
2013-05-18 01:52:00,42.6,40.5,-100.00,SW,221,0.0,1.0,92,0.00,,,0.00,meteohub,2013-05-18 05:52:00,
2013-05-18 01:57:00,42.3,40.1,-100.00,SW,221,0.0,0.0,92,0.00,,,0.00,meteohub,2013-05-18 05:57:00,
2013-05-18 02:02:00,41.7,39.6,-100.00,SW,221,0.0,0.0,92,0.00,,,0.00,meteohub,2013-05-18 06:02:00,
2013-05-18 02:08:00,41.7,39.9,-100.00,SW,221,0.0,0.0,93,0.00,,,0.00,meteohub,2013-05-18 06:08:00,
2013-05-18 02:12:00,41.5,39.7,-100.00,SW,221,0.0,0.0,93,0.00,,,0.00,meteohub,2013-05-18 06:12:00,
2013-05-18 02:18:00,42.6,41.4,-100.00,SW,220,0.0,0.0,95,0.00,,,0.00,meteohub,2013-05-18 06:18:00,
2013-05-18 02:23:00,43.3,42.1,-100.00,SW,220,0.0,0.0,95,0.00,,,0.00,meteohub,2013-05-18 06:23:00,
2013-05-18 02:28:00,44.1,42.8,-100.00,SW,220,0.0,0.0,95,0.00,,,0.00,meteohub,2013-05-18 06:28:00,
2013-05-18 02:33:00,44.4,43.3,-100.00,SW,220,0.0,0.0,96,0.00,,,0.00,meteohub,2013-05-18 06:33:00,
2013-05-18 02:38:00,45.0,43.9,-100.00,SW,220,0.0,0.0,96,0.00,,,0.00,meteohub,2013-05-18 06:38:00,
2013-05-18 02:43:00,45.1,44.1,-100.00,SW,220,0.0,0.0,96,0.00,,,0.00,meteohub,2013-05-18 06:43:00,
2013-05-18 02:48:00,45.5,44.2,-100.00,SW,220,0.0,0.0,95,0.00,,,0.00,meteohub,2013-05-18 06:48:00,
2013-05-18 02:53:00,45.7,44.4,-100.00,SW,220,0.0,0.0,95,0.00,,,0.00,meteohub,2013-05-18 06:53:00,
2013-05-18 02:58:00,45.9,44.4,-100.00,SW,220,0.0,0.0,95,0.00,,,0.00,meteohub,2013-05-18 06:58:00,
2013-05-18 03:03:00,46.0,44.6,-100.00,SW,220,0.0,0.0,95,0.00,,,0.00,meteohub,2013-05-18 07:03:00,
2013-05-18 03:08:00,46.2,44.8,-100.00,SW,220,0.0,0.0,95,0.00,,,0.00,meteohub,2013-05-18 07:08:00,
2013-05-18 03:13:00,46.6,45.1,-100.00,SE,124,1.0,0.0,95,0.00,,,0.00,meteohub,2013-05-18 07:13:00,
2013-05-18 03:18:00,46.6,45.0,-100.00,SE,124,0.0,0.0,94,0.00,,,0.00,meteohub,2013-05-18 07:18:00,
2013-05-18 03:23:00,46.8,44.8,-100.00,SE,124,0.0,1.0,93,0.00,,,0.00,meteohub,2013-05-18 07:23:00,
2013-05-18 03:28:00,46.9,45.0,-100.00,SE,124,0.0,1.0,93,0.00,,,0.00,meteohub,2013-05-18 07:28:00,
2013-05-18 03:33:00,46.9,44.8,-100.00,SE,124,0.0,0.0,92,0.00,,,0.00,meteohub,2013-05-18 07:33:00,
2013-05-18 03:38:00,46.9,44.8,-100.00,SE,124,0.0,0.0,92,0.00,,,0.00,meteohub,2013-05-18 07:38:00,
2013-05-18 03:43:00,46.9,44.8,-100.00,SE,124,0.0,0.0,92,0.00,,,0.00,meteohub,2013-05-18 07:43:00,
2013-05-18 03:48:00,46.9,44.8,-100.00,SE,124,0.0,0.0,92,0.00,,,0.00,meteohub,2013-05-18 07:48:00,
2013-05-18 03:53:00,47.1,44.6,-100.00,SE,124,0.0,0.0,91,0.00,,,0.00,meteohub,2013-05-18 07:53:00,
2013-05-18 03:58:00,47.5,45.3,-100.00,SE,124,0.0,0.0,92,0.00,,,0.00,meteohub,2013-05-18 07:58:00,
2013-05-18 04:03:00,47.7,45.5,-100.00,ESE,123,0.0,1.0,92,0.00,,,0.00,meteohub,2013-05-18 08:03:00,
2013-05-18 04:08:00,47.8,45.7,-100.00,ESE,123,0.0,1.0,92,0.00,,,0.00,meteohub,2013-05-18 08:08:00,
2013-05-18 04:13:00,47.8,45.3,-100.00,ESE,123,0.0,1.0,91,0.00,,,0.00,meteohub,2013-05-18 08:13:00,
2013-05-18 04:18:00,47.8,45.0,-100.00,ESE,123,0.0,0.0,90,0.00,,,0.00,meteohub,2013-05-18 08:18:00,
2013-05-18 04:23:00,47.8,44.4,-100.00,ESE,123,0.0,0.0,88,0.00,,,0.00,meteohub,2013-05-18 08:23:00,
2013-05-18 04:28:00,48.0,44.6,-100.00,ENE,70,0.0,0.0,88,0.00,,,0.00,meteohub,2013-05-18 08:28:00,
2013-05-18 04:33:00,48.4,45.3,-100.00,North,8,1.0,1.0,89,0.00,,,0.00,meteohub,2013-05-18 08:33:00,
2013-05-18 04:38:00,48.6,45.5,-100.00,North,10,0.0,1.0,89,0.00,,,0.00,meteohub,2013-05-18 08:38:00,
2013-05-18 04:43:00,48.6,45.1,-100.00,North,9,0.0,1.0,88,0.00,,,0.00,meteohub,2013-05-18 08:43:00,
2013-05-18 04:48:00,48.6,45.1,-100.00,North,10,0.0,1.0,88,0.00,,,0.00,meteohub,2013-05-18 08:48:00,
2013-05-18 04:54:00,48.6,45.1,-100.00,North,9,0.0,0.0,88,0.00,,,0.00,meteohub,2013-05-18 08:54:00,
2013-05-18 04:59:00,48.6,44.8,-100.00,North,8,0.0,0.0,87,0.00,,,0.00,meteohub,2013-05-18 08:59:00,
2013-05-18 05:04:00,48.6,44.8,-100.00,North,8,0.0,0.0,87,0.00,,,0.00,meteohub,2013-05-18 09:04:00,
2013-05-18 05:09:00,48.6,44.8,-100.00,North,9,0.0,0.0,87,0.00,,,0.00,meteohub,2013-05-18 09:09:00,
2013-05-18 05:14:00,48.6,44.8,-100.00,North,9,0.0,0.0,87,0.00,,,0.00,meteohub,2013-05-18 09:14:00,
2013-05-18 05:19:00,48.6,44.6,-100.00,North,10,0.0,0.0,86,0.00,,,0.00,meteohub,2013-05-18 09:19:00,
2013-05-18 05:24:00,48.6,44.2,-100.00,North,10,0.0,0.0,85,0.00,,,0.00,meteohub,2013-05-18 09:24:00,
2013-05-18 05:29:00,48.7,44.4,-100.00,North,10,0.0,0.0,85,0.00,,,0.00,meteohub,2013-05-18 09:29:00,
2013-05-18 05:34:00,48.7,44.4,-100.00,North,10,0.0,0.0,85,0.00,,,0.00,meteohub,2013-05-18 09:34:00,
2013-05-18 05:39:00,48.6,44.6,-100.00,North,9,0.0,0.0,86,0.00,,,0.00,meteohub,2013-05-18 09:39:00,
2013-05-18 05:44:00,48.6,44.8,-100.00,North,8,0.0,0.0,87,0.00,,,0.00,meteohub,2013-05-18 09:44:00,
2013-05-18 05:49:00,48.4,44.8,-100.00,North,8,0.0,0.0,87,0.00,,,0.00,meteohub,2013-05-18 09:49:00,
2013-05-18 05:54:00,48.6,44.8,-100.00,North,9,0.0,0.0,87,0.00,,,0.00,meteohub,2013-05-18 09:54:00,
2013-05-18 05:59:00,48.7,44.8,-100.00,North,10,0.0,0.0,86,0.00,,,0.00,meteohub,2013-05-18 09:59:00,
2013-05-18 06:04:00,48.7,44.4,-100.00,North,9,0.0,0.0,85,0.00,,,0.00,meteohub,2013-05-18 10:04:00,
2013-05-18 06:09:00,48.9,44.2,-100.00,North,9,0.0,0.0,84,0.00,,,0.00,meteohub,2013-05-18 10:09:00,
2013-05-18 06:14:00,49.3,45.0,-100.00,North,9,0.0,0.0,85,0.00,,,0.00,meteohub,2013-05-18 10:14:00,
2013-05-18 06:19:00,49.3,45.3,-100.00,North,9,0.0,0.0,86,0.00,,,0.00,meteohub,2013-05-18 10:19:00,
2013-05-18 06:24:00,49.5,45.5,-100.00,North,9,0.0,0.0,86,0.00,,,0.00,meteohub,2013-05-18 10:24:00,
2013-05-18 06:29:00,49.6,45.3,-100.00,North,9,0.0,0.0,85,0.00,,,0.00,meteohub,2013-05-18 10:29:00,
2013-05-18 06:34:00,50.2,45.5,-100.00,North,9,0.0,0.0,84,0.00,,,0.00,meteohub,2013-05-18 10:34:00,
2013-05-18 06:39:00,50.5,45.0,-100.00,West,267,0.0,0.0,81,0.00,,,0.00,meteohub,2013-05-18 10:39:00,
2013-05-18 06:44:00,51.1,45.5,-100.00,West,267,0.0,1.0,81,0.00,,,0.00,meteohub,2013-05-18 10:44:00,
2013-05-18 06:49:00,51.4,44.4,-100.00,West,266,0.0,1.0,77,0.00,,,0.00,meteohub,2013-05-18 10:49:00,
2013-05-18 06:54:00,52.0,44.6,-100.00,West,266,0.0,1.0,76,0.00,,,0.00,meteohub,2013-05-18 10:54:00,
2013-05-18 06:59:00,52.5,44.4,-100.00,West,266,0.0,0.0,74,0.00,,,0.00,meteohub,2013-05-18 10:59:00,
2013-05-18 07:04:00,52.9,45.1,-100.00,West,266,0.0,0.0,75,0.00,,,0.00,meteohub,2013-05-18 11:04:00,
2013-05-18 07:09:00,53.1,45.0,-100.00,East,85,0.0,1.0,74,0.00,,,0.00,meteohub,2013-05-18 11:09:00,
2013-05-18 07:15:00,53.2,45.5,-100.00,ESE,118,0.0,1.0,75,0.00,,,0.00,meteohub,2013-05-18 11:15:00,
2013-05-18 07:20:00,53.4,45.0,-100.00,WSW,256,0.0,1.0,73,0.00,,,0.00,meteohub,2013-05-18 11:20:00,
2013-05-18 07:25:00,53.6,45.1,-100.00,East,90,0.0,1.0,73,0.00,,,0.00,meteohub,2013-05-18 11:25:00,
2013-05-18 07:30:00,53.6,44.1,-100.00,East,86,3.0,3.0,70,0.00,,,0.00,meteohub,2013-05-18 11:30:00,
2013-05-18 07:35:00,53.8,44.6,-100.00,NE,50,0.0,3.0,71,0.00,,,0.00,meteohub,2013-05-18 11:35:00,
2013-05-18 07:40:00,54.0,44.8,-100.00,ENE,60,0.0,3.0,71,0.00,,,0.00,meteohub,2013-05-18 11:40:00,
2013-05-18 07:45:00,54.1,45.0,-100.00,ENE,58,0.0,3.0,71,0.00,,,0.00,meteohub,2013-05-18 11:45:00,
2013-05-18 07:50:00,54.3,44.4,-100.00,ESE,120,0.0,0.0,69,0.00,,,0.00,meteohub,2013-05-18 11:50:00,
2013-05-18 07:55:00,54.5,45.0,-100.00,East,101,0.0,3.0,70,0.00,,,0.00,meteohub,2013-05-18 11:55:00,
2013-05-18 08:00:00,54.7,44.2,-100.00,ESE,109,0.0,3.0,68,0.00,,,0.00,meteohub,2013-05-18 12:00:00,
2013-05-18 08:05:00,55.0,44.6,-100.00,ESE,110,0.0,2.0,68,0.00,,,0.00,meteohub,2013-05-18 12:05:00,
2013-05-18 08:10:00,55.4,45.3,-100.00,ESE,110,0.0,1.0,69,0.00,,,0.00,meteohub,2013-05-18 12:10:00,
2013-05-18 08:15:00,55.8,45.3,-100.00,ESE,110,0.0,1.0,68,0.00,,,0.00,meteohub,2013-05-18 12:15:00,
2013-05-18 08:20:00,56.3,45.1,-100.00,SE,142,0.0,2.0,66,0.00,,,0.00,meteohub,2013-05-18 12:20:00,
2013-05-18 08:25:00,56.8,45.7,-100.00,SE,142,0.0,2.0,66,0.00,,,0.00,meteohub,2013-05-18 12:25:00,
2013-05-18 08:30:00,57.2,45.1,-100.00,WNW,283,0.0,2.0,64,0.00,,,0.00,meteohub,2013-05-18 12:30:00,
2013-05-18 08:35:00,57.4,45.0,-100.00,East,82,1.0,2.0,63,0.00,,,0.00,meteohub,2013-05-18 12:35:00,
2013-05-18 08:40:00,57.7,45.7,-100.00,North,10,1.0,2.0,64,0.00,,,0.00,meteohub,2013-05-18 12:40:00,
2013-05-18 08:45:00,58.3,45.7,-100.00,East,79,0.0,2.0,63,0.00,,,0.00,meteohub,2013-05-18 12:45:00,
2013-05-18 08:50:00,58.6,44.8,-100.00,ESE,113,0.0,1.0,60,0.00,,,0.00,meteohub,2013-05-18 12:50:00,
2013-05-18 08:55:00,59.0,45.1,-100.00,SSE,158,0.0,3.0,60,0.00,,,0.00,meteohub,2013-05-18 12:55:00,
2013-05-18 09:00:00,59.4,45.5,-100.00,South,191,0.0,3.0,60,0.00,,,0.00,meteohub,2013-05-18 13:00:00,
2013-05-18 09:05:00,59.9,45.1,-100.00,East,98,0.0,3.0,58,0.00,,,0.00,meteohub,2013-05-18 13:05:00,
2013-05-18 09:10:00,60.3,45.5,-100.00,SE,141,1.0,3.0,58,0.00,,,0.00,meteohub,2013-05-18 13:10:00,
2013-05-18 09:15:00,60.6,45.3,-100.00,NE,35,0.0,4.0,57,0.00,,,0.00,meteohub,2013-05-18 13:15:00,
2013-05-18 09:20:00,61.2,45.3,-100.00,SSE,148,0.0,4.0,56,0.00,,,0.00,meteohub,2013-05-18 13:20:00,
2013-05-18 09:25:00,61.3,46.0,-100.00,WSW,250,1.0,4.0,57,0.00,,,0.00,meteohub,2013-05-18 13:25:00,
2013-05-18 09:30:00,61.5,45.1,-100.00,NW,312,3.0,3.0,55,0.00,,,0.00,meteohub,2013-05-18 13:30:00,
2013-05-18 09:35:00,61.5,45.7,-100.00,East,87,0.0,6.0,56,0.00,,,0.00,meteohub,2013-05-18 13:35:00,
2013-05-18 09:40:00,61.7,43.9,-100.00,WNW,302,3.0,6.0,52,0.00,,,0.00,meteohub,2013-05-18 13:40:00,
2013-05-18 09:45:00,61.7,43.9,-100.00,SSW,212,0.0,7.0,52,0.00,,,0.00,meteohub,2013-05-18 13:45:00,
2013-05-18 09:50:00,61.9,44.1,-100.00,SSE,153,1.0,7.0,52,0.00,,,0.00,meteohub,2013-05-18 13:50:00,
2013-05-18 09:55:00,62.4,44.1,-100.00,NW,314,0.0,7.0,51,0.00,,,0.00,meteohub,2013-05-18 13:55:00,
2013-05-18 10:00:00,62.6,45.1,-100.00,NNW,336,0.0,5.0,53,0.00,,,0.00,meteohub,2013-05-18 14:00:00,
2013-05-18 10:05:00,62.8,44.4,-100.00,WSW,256,3.0,6.0,51,0.00,,,0.00,meteohub,2013-05-18 14:05:00,
2013-05-18 10:10:00,62.8,43.9,-100.00,ESE,103,3.0,6.0,50,0.00,,,0.00,meteohub,2013-05-18 14:10:00,
2013-05-18 10:15:00,63.0,44.6,-100.00,ENE,63,3.0,6.0,51,0.00,,,0.00,meteohub,2013-05-18 14:15:00,
2013-05-18 10:20:00,63.1,44.2,-100.00,ENE,72,2.0,7.0,50,0.00,,,0.00,meteohub,2013-05-18 14:20:00,
2013-05-18 10:25:00,63.1,45.7,-100.00,West,277,2.0,7.0,53,0.00,,,0.00,meteohub,2013-05-18 14:25:00,
2013-05-18 10:30:00,63.3,43.9,-100.00,SW,225,0.0,6.0,49,0.00,,,0.00,meteohub,2013-05-18 14:30:00,
2013-05-18 10:35:00,63.7,45.1,-100.00,SE,143,4.0,6.0,51,0.00,,,0.00,meteohub,2013-05-18 14:35:00,
2013-05-18 10:40:00,64.2,45.1,-100.00,SSE,164,1.0,6.0,50,0.00,,,0.00,meteohub,2013-05-18 14:40:00,
2013-05-18 10:45:00,64.9,45.9,-100.00,SE,127,1.0,6.0,50,0.00,,,0.00,meteohub,2013-05-18 14:45:00,
2013-05-18 10:50:00,65.7,45.0,-100.00,NW,315,2.0,5.0,47,0.00,,,0.00,meteohub,2013-05-18 14:50:00,
2013-05-18 10:55:00,66.0,44.6,-100.00,West,278,2.0,9.0,46,0.00,,,0.00,meteohub,2013-05-18 14:55:00,
2013-05-18 11:01:00,66.4,45.5,-100.00,West,280,1.0,9.0,47,0.00,,,0.00,meteohub,2013-05-18 15:01:00,
2013-05-18 11:06:00,67.5,44.2,-100.00,SSW,202,1.0,9.0,43,0.00,,,0.00,meteohub,2013-05-18 15:06:00,
2013-05-18 11:11:00,67.8,43.9,-100.00,ENE,72,3.0,5.0,42,0.00,,,0.00,meteohub,2013-05-18 15:11:00,
2013-05-18 11:16:00,68.4,45.0,-100.00,SW,216,3.0,7.0,43,0.00,,,0.00,meteohub,2013-05-18 15:16:00,
2013-05-18 11:21:00,69.3,47.7,-100.00,SSE,158,0.0,7.0,46,0.00,,,0.00,meteohub,2013-05-18 15:21:00,
2013-05-18 11:26:00,69.3,43.2,-100.00,SW,229,1.0,7.0,39,0.00,,,0.00,meteohub,2013-05-18 15:26:00,
2013-05-18 11:31:00,69.4,44.1,-100.00,SSE,155,6.0,7.0,40,0.00,,,0.00,meteohub,2013-05-18 15:31:00,
2013-05-18 11:36:00,69.6,45.0,-100.00,SW,228,1.0,9.0,41,0.00,,,0.00,meteohub,2013-05-18 15:36:00,
2013-05-18 11:41:00,70.2,44.8,-100.00,SSE,161,1.0,9.0,40,0.00,,,0.00,meteohub,2013-05-18 15:41:00,
2013-05-18 11:46:00,69.6,43.5,-100.00,NNE,17,3.0,9.0,39,0.00,,,0.00,meteohub,2013-05-18 15:46:00,
2013-05-18 11:51:00,69.4,43.3,-100.00,SSE,160,1.0,8.0,39,0.00,,,0.00,meteohub,2013-05-18 15:51:00,
2013-05-18 11:56:00,69.6,42.8,-100.00,South,191,1.0,8.0,38,0.00,,,0.00,meteohub,2013-05-18 15:56:00,
2013-05-18 12:01:00,70.0,43.9,-100.00,WSW,252,0.0,8.0,39,0.00,,,0.00,meteohub,2013-05-18 16:01:00,
2013-05-18 12:06:00,70.9,43.3,-100.00,SE,132,3.0,6.0,37,0.00,,,0.00,meteohub,2013-05-18 16:06:00,
2013-05-18 12:11:00,71.2,43.7,-100.00,NE,34,2.0,5.0,37,0.00,,,0.00,meteohub,2013-05-18 16:11:00,
2013-05-18 12:16:00,71.4,43.7,-100.00,ENE,77,3.0,6.0,37,0.00,,,0.00,meteohub,2013-05-18 16:16:00,
2013-05-18 12:21:00,71.6,43.2,-100.00,NW,314,6.0,7.0,36,0.00,,,0.00,meteohub,2013-05-18 16:21:00,
2013-05-18 12:26:00,70.5,47.5,-100.00,SSW,205,2.0,10.0,44,0.00,,,0.00,meteohub,2013-05-18 16:26:00,
2013-05-18 12:31:00,68.7,47.7,-100.00,WSW,258,0.0,10.0,47,0.00,,,0.00,meteohub,2013-05-18 16:31:00,
2013-05-18 12:36:00,68.2,46.0,-100.00,SSW,207,1.0,10.0,45,0.00,,,0.00,meteohub,2013-05-18 16:36:00,
2013-05-18 12:41:00,68.4,49.5,-100.00,NE,49,5.0,7.0,51,0.00,,,0.00,meteohub,2013-05-18 16:41:00,
2013-05-18 12:46:00,68.9,49.5,-100.00,NW,304,2.0,9.0,50,0.00,,,0.00,meteohub,2013-05-18 16:46:00,
2013-05-18 12:51:00,69.3,48.7,-100.00,North,353,4.0,9.0,48,0.00,,,0.00,meteohub,2013-05-18 16:51:00,
2013-05-18 12:56:00,68.7,49.3,-100.00,NNE,14,5.0,9.0,50,0.00,,,0.00,meteohub,2013-05-18 16:56:00,
2013-05-18 13:01:00,68.4,48.4,-100.00,NNW,343,7.0,9.0,49,0.00,,,0.00,meteohub,2013-05-18 17:01:00,
2013-05-18 13:06:00,67.8,49.6,-100.00,NW,313,2.0,9.0,52,0.00,,,0.00,meteohub,2013-05-18 17:06:00,
2013-05-18 13:11:00,67.8,49.6,-100.00,WNW,300,1.0,9.0,52,0.00,,,0.00,meteohub,2013-05-18 17:11:00,
2013-05-18 13:16:00,68.4,50.5,-100.00,WSW,241,0.0,8.0,53,0.00,,,0.00,meteohub,2013-05-18 17:16:00,
2013-05-18 13:21:00,69.1,50.2,-100.00,North,353,6.0,6.0,51,0.00,,,0.00,meteohub,2013-05-18 17:21:00,
2013-05-18 13:26:00,68.7,49.3,-100.00,WNW,299,4.0,7.0,50,0.00,,,0.00,meteohub,2013-05-18 17:26:00,
2013-05-18 13:31:00,68.2,48.9,-100.00,NNW,329,2.0,7.0,50,0.00,,,0.00,meteohub,2013-05-18 17:31:00,
2013-05-18 13:36:00,68.4,48.9,-100.00,NW,318,2.0,8.0,50,0.00,,,0.00,meteohub,2013-05-18 17:36:00,
2013-05-18 13:41:00,68.4,48.4,-100.00,WNW,302,3.0,8.0,49,0.00,,,0.00,meteohub,2013-05-18 17:41:00,
2013-05-18 13:46:00,68.0,49.6,-100.00,NW,307,3.0,8.0,52,0.00,,,0.00,meteohub,2013-05-18 17:46:00,
2013-05-18 13:51:00,68.5,48.6,-100.00,WNW,290,2.0,8.0,49,0.00,,,0.00,meteohub,2013-05-18 17:51:00,
2013-05-18 13:56:00,68.5,49.6,-100.00,NW,305,4.0,7.0,51,0.00,,,0.00,meteohub,2013-05-18 17:56:00,
2013-05-18 14:01:00,68.5,49.1,-100.00,NW,323,3.0,7.0,50,0.00,,,0.00,meteohub,2013-05-18 18:01:00,
2013-05-18 14:06:00,68.4,48.9,-100.00,NNW,329,3.0,7.0,50,0.00,,,0.00,meteohub,2013-05-18 18:06:00,
2013-05-18 14:11:00,68.7,49.8,-100.00,West,265,4.0,6.0,51,0.00,,,0.00,meteohub,2013-05-18 18:11:00,
2013-05-18 14:16:00,69.1,50.2,-100.00,NNW,340,0.0,9.0,51,0.00,,,0.00,meteohub,2013-05-18 18:16:00,
2013-05-18 14:21:00,69.8,49.8,-100.00,WSW,255,2.0,9.0,49,0.00,,,0.00,meteohub,2013-05-18 18:21:00,
2013-05-18 14:26:00,69.6,47.3,-100.00,NNW,328,4.0,8.0,45,0.00,,,0.00,meteohub,2013-05-18 18:26:00,
2013-05-18 14:31:00,69.3,49.3,-100.00,NW,311,2.0,6.0,49,0.00,,,0.00,meteohub,2013-05-18 18:31:00,
2013-05-18 14:36:00,69.6,49.1,-100.00,NW,319,6.0,7.0,48,0.00,,,0.00,meteohub,2013-05-18 18:36:00,
2013-05-18 14:41:00,69.3,49.3,-100.00,WNW,302,3.0,7.0,49,0.00,,,0.00,meteohub,2013-05-18 18:41:00,
2013-05-18 14:46:00,69.3,50.4,-100.00,NW,317,3.0,7.0,51,0.00,,,0.00,meteohub,2013-05-18 18:46:00,
2013-05-18 14:51:00,69.3,48.7,-100.00,NNW,327,5.0,6.0,48,0.00,,,0.00,meteohub,2013-05-18 18:51:00,
2013-05-18 14:56:00,69.6,49.1,-100.00,WNW,295,4.0,7.0,48,0.00,,,0.00,meteohub,2013-05-18 18:56:00,
2013-05-18 15:01:00,70.0,48.7,-100.00,SE,146,1.0,7.0,47,0.00,,,0.00,meteohub,2013-05-18 19:01:00,
2013-05-18 15:06:00,70.5,47.5,-100.00,WNW,297,2.0,7.0,44,0.00,,,0.00,meteohub,2013-05-18 19:06:00,
2013-05-18 15:11:00,70.3,48.6,-100.00,WNW,295,2.0,6.0,46,0.00,,,0.00,meteohub,2013-05-18 19:11:00,
2013-05-18 15:17:00,70.2,48.4,-100.00,NW,314,6.0,6.0,46,0.00,,,0.00,meteohub,2013-05-18 19:17:00,
2013-05-18 15:22:00,70.0,47.7,-100.00,NNW,328,3.0,6.0,45,0.00,,,0.00,meteohub,2013-05-18 19:22:00,
2013-05-18 15:27:00,70.0,48.2,-100.00,NNE,20,1.0,7.0,46,0.00,,,0.00,meteohub,2013-05-18 19:27:00,
2013-05-18 15:32:00,70.2,48.4,-100.00,NW,309,5.0,11.0,46,0.00,,,0.00,meteohub,2013-05-18 19:32:00,
2013-05-18 15:37:00,69.6,46.8,-100.00,NW,313,2.0,11.0,44,0.00,,,0.00,meteohub,2013-05-18 19:37:00,
2013-05-18 15:42:00,69.3,46.9,-100.00,NW,317,5.0,7.0,45,0.00,,,0.00,meteohub,2013-05-18 19:42:00,
2013-05-18 15:47:00,69.3,47.7,-100.00,NW,324,8.0,8.0,46,0.00,,,0.00,meteohub,2013-05-18 19:47:00,
2013-05-18 15:52:00,69.3,47.7,-100.00,WNW,295,4.0,8.0,46,0.00,,,0.00,meteohub,2013-05-18 19:52:00,
2013-05-18 15:57:00,69.1,46.8,-100.00,WNW,294,4.0,10.0,45,0.00,,,0.00,meteohub,2013-05-18 19:57:00,
2013-05-18 16:02:00,68.7,47.7,-100.00,South,169,1.0,11.0,47,0.00,,,0.00,meteohub,2013-05-18 20:02:00,
2013-05-18 16:07:00,69.3,46.4,-100.00,NNW,335,5.0,11.0,44,0.00,,,0.00,meteohub,2013-05-18 20:07:00,
2013-05-18 16:12:00,68.7,45.3,-100.00,WNW,302,2.0,11.0,43,0.00,,,0.00,meteohub,2013-05-18 20:12:00,
2013-05-18 16:17:00,68.7,47.7,-100.00,East,96,2.0,8.0,47,0.00,,,0.00,meteohub,2013-05-18 20:17:00,
2013-05-18 16:22:00,68.7,47.1,-100.00,North,353,1.0,8.0,46,0.00,,,0.00,meteohub,2013-05-18 20:22:00,
2013-05-18 16:27:00,68.7,47.1,-100.00,NNW,328,2.0,7.0,46,0.00,,,0.00,meteohub,2013-05-18 20:27:00,
2013-05-18 16:32:00,68.7,48.2,-100.00,WNW,301,2.0,7.0,48,0.00,,,0.00,meteohub,2013-05-18 20:32:00,
2013-05-18 16:37:00,69.1,48.6,-100.00,West,259,1.0,5.0,48,0.00,,,0.00,meteohub,2013-05-18 20:37:00,
2013-05-18 16:42:00,69.1,48.0,-100.00,WNW,282,1.0,5.0,47,0.00,,,0.00,meteohub,2013-05-18 20:42:00,
2013-05-18 16:47:00,69.4,48.9,-100.00,NE,49,1.0,5.0,48,0.00,,,0.00,meteohub,2013-05-18 20:47:00,
2013-05-18 16:52:00,70.2,48.4,-100.00,NW,307,2.0,5.0,46,0.00,,,0.00,meteohub,2013-05-18 20:52:00,
2013-05-18 16:57:00,70.3,47.5,-100.00,NW,311,2.0,5.0,44,0.00,,,0.00,meteohub,2013-05-18 20:57:00,
2013-05-18 17:02:00,70.7,46.4,-100.00,West,280,1.0,5.0,42,0.00,,,0.00,meteohub,2013-05-18 21:02:00,
2013-05-18 17:07:00,70.9,47.8,-100.00,NW,317,2.0,5.0,44,0.00,,,0.00,meteohub,2013-05-18 21:07:00,
2013-05-18 17:12:00,70.9,47.3,-100.00,NW,304,2.0,4.0,43,0.00,,,0.00,meteohub,2013-05-18 21:12:00,
2013-05-18 17:17:00,70.9,47.3,-100.00,West,272,3.0,6.0,43,0.00,,,0.00,meteohub,2013-05-18 21:17:00,
2013-05-18 17:22:00,71.1,48.6,-100.00,NW,312,0.0,6.0,45,0.00,,,0.00,meteohub,2013-05-18 21:22:00,
2013-05-18 17:27:00,70.9,48.6,-100.00,SW,226,1.0,6.0,45,0.00,,,0.00,meteohub,2013-05-18 21:27:00,
2013-05-18 17:32:00,70.5,48.2,-100.00,ENE,62,2.0,5.0,45,0.00,,,0.00,meteohub,2013-05-18 21:32:00,
2013-05-18 17:37:00,70.3,47.5,-100.00,NW,319,4.0,8.0,44,0.00,,,0.00,meteohub,2013-05-18 21:37:00,
2013-05-18 17:42:00,70.2,48.4,-100.00,NW,317,2.0,8.0,46,0.00,,,0.00,meteohub,2013-05-18 21:42:00,
2013-05-18 17:47:00,69.8,48.0,-100.00,WNW,293,1.0,8.0,46,0.00,,,0.00,meteohub,2013-05-18 21:47:00,
2013-05-18 17:52:00,70.2,49.6,-100.00,NW,310,2.0,7.0,48,0.00,,,0.00,meteohub,2013-05-18 21:52:00,
2013-05-18 17:57:00,70.0,49.5,-100.00,NNE,16,0.0,5.0,48,0.00,,,0.00,meteohub,2013-05-18 21:57:00,
2013-05-18 18:02:00,69.6,49.1,-100.00,NE,51,1.0,5.0,48,0.00,,,0.00,meteohub,2013-05-18 22:02:00,
2013-05-18 18:07:00,69.1,49.6,-100.00,NNE,13,0.0,4.0,50,0.00,,,0.00,meteohub,2013-05-18 22:07:00,
2013-05-18 18:12:00,68.7,48.7,-100.00,NNW,342,3.0,4.0,49,0.00,,,0.00,meteohub,2013-05-18 22:12:00,
2013-05-18 18:17:00,68.7,48.7,-100.00,NE,49,4.0,4.0,49,0.00,,,0.00,meteohub,2013-05-18 22:17:00,
2013-05-18 18:22:00,69.1,49.1,-100.00,North,11,3.0,4.0,49,0.00,,,0.00,meteohub,2013-05-18 22:22:00,
2013-05-18 18:27:00,69.3,49.3,-100.00,NW,311,1.0,4.0,49,0.00,,,0.00,meteohub,2013-05-18 22:27:00,
2013-05-18 18:32:00,69.4,48.9,-100.00,WNW,300,0.0,4.0,48,0.00,,,0.00,meteohub,2013-05-18 22:32:00,
2013-05-18 18:37:00,69.4,48.9,-100.00,NW,317,0.0,4.0,48,0.00,,,0.00,meteohub,2013-05-18 22:37:00,
2013-05-18 18:42:00,69.4,48.4,-100.00,NW,308,1.0,4.0,47,0.00,,,0.00,meteohub,2013-05-18 22:42:00,
2013-05-18 18:47:00,69.6,49.1,-100.00,WNW,299,1.0,3.0,48,0.00,,,0.00,meteohub,2013-05-18 22:47:00,
2013-05-18 18:52:00,69.4,48.4,-100.00,NW,311,0.0,3.0,47,0.00,,,0.00,meteohub,2013-05-18 22:52:00,
2013-05-18 18:57:00,69.1,48.0,-100.00,North,10,1.0,3.0,47,0.00,,,0.00,meteohub,2013-05-18 22:57:00,
2013-05-18 19:02:00,68.4,48.4,-100.00,North,1,0.0,4.0,49,0.00,,,0.00,meteohub,2013-05-18 23:02:00,
2013-05-18 19:07:00,67.8,48.6,-100.00,WSW,249,0.0,4.0,50,0.00,,,0.00,meteohub,2013-05-18 23:07:00,
2013-05-18 19:13:00,66.9,48.7,-100.00,West,275,1.0,4.0,52,0.00,,,0.00,meteohub,2013-05-18 23:13:00,
2013-05-18 19:18:00,65.8,47.7,-100.00,NW,319,1.0,2.0,52,0.00,,,0.00,meteohub,2013-05-18 23:18:00,
2013-05-18 19:23:00,65.3,48.7,-100.00,NNW,340,1.0,2.0,55,0.00,,,0.00,meteohub,2013-05-18 23:23:00,
2013-05-18 19:28:00,64.8,47.7,-100.00,NNW,329,1.0,3.0,54,0.00,,,0.00,meteohub,2013-05-18 23:28:00,
2013-05-18 19:33:00,64.4,48.4,-100.00,NW,308,1.0,3.0,56,0.00,,,0.00,meteohub,2013-05-18 23:33:00,
2013-05-18 19:38:00,63.9,48.4,-100.00,NW,317,1.0,2.0,57,0.00,,,0.00,meteohub,2013-05-18 23:38:00,
2013-05-18 19:43:00,63.3,48.4,-100.00,NNW,342,0.0,3.0,58,0.00,,,0.00,meteohub,2013-05-18 23:43:00,
2013-05-18 19:48:00,62.8,48.2,-100.00,NW,316,0.0,3.0,59,0.00,,,0.00,meteohub,2013-05-18 23:48:00,
2013-05-18 19:53:00,62.2,48.2,-100.00,NW,309,0.0,3.0,60,0.00,,,0.00,meteohub,2013-05-18 23:53:00,
2013-05-18 19:58:00,61.7,48.2,-100.00,NW,307,0.0,2.0,61,0.00,,,0.00,meteohub,2013-05-18 23:58:00,
2013-05-18 20:03:00,61.3,47.8,-100.00,NE,41,0.0,1.0,61,0.00,,,0.00,meteohub,2013-05-19 00:03:00,
2013-05-18 20:08:00,61.0,47.8,-100.00,WNW,290,1.0,2.0,62,0.00,,,0.00,meteohub,2013-05-19 00:08:00,
2013-05-18 20:13:00,60.4,47.8,-100.00,WNW,289,0.0,2.0,63,0.00,,,0.00,meteohub,2013-05-19 00:13:00,
2013-05-18 20:18:00,60.1,47.5,-100.00,NNE,28,0.0,3.0,63,0.00,,,0.00,meteohub,2013-05-19 00:18:00,
2013-05-18 20:23:00,59.7,47.5,-100.00,WSW,252,0.0,3.0,64,0.00,,,0.00,meteohub,2013-05-19 00:23:00,
2013-05-18 20:28:00,59.5,47.3,-100.00,NE,37,0.0,3.0,64,0.00,,,0.00,meteohub,2013-05-19 00:28:00,
2013-05-18 20:33:00,59.4,47.1,-100.00,SSW,205,0.0,1.0,64,0.00,,,0.00,meteohub,2013-05-19 00:33:00,
2013-05-18 20:38:00,59.2,47.5,-100.00,WSW,254,0.0,2.0,65,0.00,,,0.00,meteohub,2013-05-19 00:38:00,
2013-05-18 20:43:00,59.2,47.5,-100.00,WNW,293,1.0,2.0,65,0.00,,,0.00,meteohub,2013-05-19 00:43:00,
2013-05-18 20:48:00,59.0,47.3,-100.00,West,264,0.0,1.0,65,0.00,,,0.00,meteohub,2013-05-19 00:48:00,
2013-05-18 20:53:00,58.8,47.1,-100.00,West,264,0.0,1.0,65,0.00,,,0.00,meteohub,2013-05-19 00:53:00,
2013-05-18 20:58:00,58.6,47.3,-100.00,ENE,72,0.0,1.0,66,0.00,,,0.00,meteohub,2013-05-19 00:58:00,
2013-05-18 21:03:00,58.6,46.9,-100.00,NNE,24,1.0,1.0,65,0.00,,,0.00,meteohub,2013-05-19 01:03:00,
2013-05-18 21:08:00,58.6,46.9,-100.00,WNW,283,0.0,1.0,65,0.00,,,0.00,meteohub,2013-05-19 01:08:00,
2013-05-18 21:13:00,58.8,47.1,-100.00,North,355,0.0,2.0,65,0.00,,,0.00,meteohub,2013-05-19 01:13:00,
2013-05-18 21:18:00,58.8,47.1,-100.00,North,352,0.0,3.0,65,0.00,,,0.00,meteohub,2013-05-19 01:18:00,
2013-05-18 21:23:00,58.8,47.1,-100.00,NNW,345,0.0,3.0,65,0.00,,,0.00,meteohub,2013-05-19 01:23:00,
2013-05-18 21:28:00,58.8,46.6,-100.00,WNW,293,0.0,3.0,64,0.00,,,0.00,meteohub,2013-05-19 01:28:00,
2013-05-18 21:33:00,58.8,46.6,-100.00,WNW,290,0.0,2.0,64,0.00,,,0.00,meteohub,2013-05-19 01:33:00,
2013-05-18 21:38:00,58.8,46.2,-100.00,NE,44,0.0,2.0,63,0.00,,,0.00,meteohub,2013-05-19 01:38:00,
2013-05-18 21:43:00,59.2,46.6,-100.00,NE,56,3.0,3.0,63,0.00,,,0.00,meteohub,2013-05-19 01:43:00,
2013-05-18 21:49:00,59.2,46.2,-100.00,SE,124,0.0,2.0,62,0.00,,,0.00,meteohub,2013-05-19 01:49:00,
2013-05-18 21:54:00,59.4,45.5,-100.00,East,98,2.0,3.0,60,0.00,,,0.00,meteohub,2013-05-19 01:54:00,
2013-05-18 21:59:00,59.5,45.1,-100.00,ESE,118,0.0,3.0,59,0.00,,,0.00,meteohub,2013-05-19 01:59:00,
2013-05-18 22:04:00,59.5,45.7,-100.00,East,97,0.0,4.0,60,0.00,,,0.00,meteohub,2013-05-19 02:04:00,
2013-05-18 22:09:00,59.5,45.7,-100.00,South,191,0.0,4.0,60,0.00,,,0.00,meteohub,2013-05-19 02:09:00,
2013-05-18 22:14:00,59.5,45.7,-100.00,SSE,148,0.0,4.0,60,0.00,,,0.00,meteohub,2013-05-19 02:14:00,
2013-05-18 22:19:00,59.5,45.7,-100.00,NNE,12,0.0,2.0,60,0.00,,,0.00,meteohub,2013-05-19 02:19:00,
2013-05-18 22:24:00,59.5,45.1,-100.00,SSE,150,3.0,3.0,59,0.00,,,0.00,meteohub,2013-05-19 02:24:00,
2013-05-18 22:29:00,59.7,45.3,-100.00,SSE,150,1.0,3.0,59,0.00,,,0.00,meteohub,2013-05-19 02:29:00,
2013-05-18 22:34:00,59.9,45.1,-100.00,West,259,0.0,5.0,58,0.00,,,0.00,meteohub,2013-05-19 02:34:00,
2013-05-18 22:39:00,59.7,45.0,-100.00,ESE,110,0.0,5.0,58,0.00,,,0.00,meteohub,2013-05-19 02:39:00,
2013-05-18 22:44:00,59.9,44.6,-100.00,East,79,0.0,4.0,57,0.00,,,0.00,meteohub,2013-05-19 02:44:00,
2013-05-18 22:49:00,59.7,45.0,-100.00,West,265,0.0,3.0,58,0.00,,,0.00,meteohub,2013-05-19 02:49:00,
2013-05-18 22:54:00,59.7,44.4,-100.00,WSW,255,0.0,2.0,57,0.00,,,0.00,meteohub,2013-05-19 02:54:00,
2013-05-18 22:59:00,59.5,44.8,-100.00,ESE,120,0.0,2.0,58,0.00,,,0.00,meteohub,2013-05-19 02:59:00,
2013-05-18 23:04:00,59.5,44.8,-100.00,SW,233,0.0,2.0,58,0.00,,,0.00,meteohub,2013-05-19 03:04:00,
2013-05-18 23:09:00,59.5,45.1,-100.00,NE,35,0.0,3.0,59,0.00,,,0.00,meteohub,2013-05-19 03:09:00,
2013-05-18 23:14:00,59.5,44.8,-100.00,WSW,250,0.0,3.0,58,0.00,,,0.00,meteohub,2013-05-19 03:14:00,
2013-05-18 23:19:00,59.5,44.2,-100.00,SW,223,1.0,3.0,57,0.00,,,0.00,meteohub,2013-05-19 03:19:00,
2013-05-18 23:24:00,59.5,44.2,-100.00,ESE,102,2.0,3.0,57,0.00,,,0.00,meteohub,2013-05-19 03:24:00,
2013-05-18 23:29:00,59.7,44.1,-100.00,ENE,73,0.0,3.0,56,0.00,,,0.00,meteohub,2013-05-19 03:29:00,
2013-05-18 23:34:00,59.7,44.1,-100.00,West,259,0.0,3.0,56,0.00,,,0.00,meteohub,2013-05-19 03:34:00,
2013-05-18 23:39:00,59.7,44.1,-100.00,ESE,106,0.0,3.0,56,0.00,,,0.00,meteohub,2013-05-19 03:39:00,
2013-05-18 23:44:00,59.5,43.9,-100.00,ESE,122,2.0,3.0,56,0.00,,,0.00,meteohub,2013-05-19 03:44:00,
2013-05-18 23:49:00,59.5,43.3,-100.00,ESE,123,1.0,3.0,55,0.00,,,0.00,meteohub,2013-05-19 03:49:00,
2013-05-18 23:54:00,59.5,43.3,-100.00,SSE,148,0.0,4.0,55,0.00,,,0.00,meteohub,2013-05-19 03:54:00,
2013-05-18 23:59:00,59.5,43.9,-100.00,NW,321,0.0,4.0,56,0.00,,,0.00,meteohub,2013-05-19 03:59:00,